Weather in Ptichie

Ukraine / Rovno District     50°18′08″N   25°37′07″E
temp.,
°C
wind,
m/s
gust,
m/s
humid.,
%
clouds,
%
prec.,
mm/h
press.,
hPa
HPBL,
m
15 april, thu
thu1500:00+3w4597100 1.0 1016322
03:00+2w4697100 1.8 1016321
06:00+1wnw4699100 2.4 1016250
09:00+2wnw3598100 2.9 1017332
12:00+2w3598100 0.3 1016349
15:00+3wnw4596100 0.3 1017504
18:00+3wnw5793100 0.1 1016559
21:00+2w5997100 0.1 1016470
16 april, fri
fri1600:00+2w61097100 0.1 1015417
03:00+1w61198100 2.6 1014400
06:000w613100100 5.3 1014449
09:000wsw71299100 8.6 1014530
12:00+1wsw612100100 2.2 1015567
15:00+1wsw612100100 2.8 1015620
18:00+1wsw61299100 1.6 1015611
21:00+1wsw61299100 2.8 1016560
17 april, sat
sat1700:00+1wsw61299100 1.6 1016498
03:00+1wsw61199100 2.8 1017475
06:00+1w510100100 0.8 1018440
09:00+1w59100100 0.9 1019392
12:00+2w47100100 0.0 1020472
15:00+3w35100100 0.0 1021320
18:00+3w12100100 0.0 1021257
21:00+3ssw11100100 0.0 102133
18 april, sun
sun1800:00+2sse0110090 0.0 102119
03:00+2ese119797 0.0 102196
06:00+2e2297100 0.0 1020188
09:00+3ese339271 0.0 1020284
12:00+8e3375100 0.0 1020611
15:00+11e3462100 0.0 10191234
18:00+11ene3568100 0.1 1018252
21:00+7ene3881100 0.1 1019157
19 april, mon
mon1900:00+7ese2584100 0.0 1019113
03:00+7e1189100 0.3 101914
06:00+7ene3587100 0.1 1018121
09:00+9ene467680 0.1 1018336
12:00+12e566299 0.1 10171412
15:00+11e6874100 1.1 10161270
18:00+11ene696963 0.4 10151241
21:00+8ene51181100 0.6 1015349